Orbital Elements at Epoch 2459000.5 (2020-May-31.0) TDB
Reference: JPL 29 (heliocentric ecliptic J2000)
Element | Value | Uncertainty (1-sigma) | Units |
e | .1923199258706749 | 4.9005e-08 | |
a | 3.934966284824252 | 3.6188e-08 | au |
q | 3.178193860623247 | 2.0567e-07 | au |
i | 7.570298835215513 | 5.389e-06 | deg |
node | 314.0847699447102 | 3.9556e-05 | deg |
peri | 81.68226941596583 | 4.1607e-05 | deg |
M | 9.759701133817527 | 1.2882e-05 | deg |
tp | 2458923.206322948586 (2020-Mar-14.70632295) | 0.00010165 | TDB |
period | 2851.08358923948 7.81 | 3.933e-05 1.077e-07 | d yr |
n | .1262677816107206 | 1.7418e-09 | deg/d |
Q | 4.691738709025257 | 4.3147e-08 | au |
|
| | Orbit Determination Parameters
Additional Information
|